Wind_Speed
36 36 35 33 34 34 34 35 37 39 36 32 32 29 29 32 34 36 39 41 42 45 48 50 52 52 52 50 48 49 50 51 50 49 51 52 50 42
40 41 40 39 37 36 35 35 34 35 38 32 29 28 26 29 28 31 36 37 40 41 43 45 46 50 53 54 54 53 53 52 50 52 48 50 51 45
34 36 37 40 40 38 37 36 37 36 40 37 34 32 31 29 26 26 27 30 34 34 38 40 43 44 48 50 52 52 50 51 52 49 51 50 46 45
32 34 34 36 39 40 39 38 38 38 42 42 36 36 38 29 27 30 29 29 30 33 34 38 40 39 43 45 49 51 52 48 49 53 52 51 49 47
34 34 34 35 35 38 40 40 39 40 40 43 41 39 37 33 29 29 29 31 36 31 36 35 36 36 36 38 42 45 50 51 49 51 53 55 56 55
37 36 36 36 35 35 38 39 40 41 41 42 43 41 38 32 31 28 30 28 33 33 33 33 35 34 32 36 38 39 43 45 45 44 46 49 45 44
40 37 36 37 36 36 36 35 38 40 40 41 42 41 37 31 29 23 26 28 29 28 29 27 29 34 37 39 33 39 43 43 47 45 46 45 43 41
41 39 37 37 37 36 37 36 36 37 38 39 37 36 32 29 26 26 25 30 30 27 28 29 30 31 30 32 31 25 37 42 48 48 45 39 43 43
44 41 39 38 37 36 36 36 35 36 35 36 34 30 27 25 24 25 34 27 32 32 30 27 29 27 22 24 26 30 32 31 37 26 37 49 40 41
43 41 40 37 37 36 36 35 34 34 31 30 31 28 29 24 28 27 30 30 30 30 28 30 26 24 24 22 24 20 15 21 22 27 35 37 44 50
41 40 39 38 36 36 36 35 34 32 30 28 26 27 26 30 32 33 33 35 33 31 31 32 25 20 25 24 27 18 18 19 19 21 22 30 31 28
42 39 38 37 36 36 35 34 33 32 31 27 26 25 28 28 29 31 33 34 39 36 30 32 29 24 26 26 30 21 23 19 20 20 19 19 19 21
44 40 38 38 37 35 36 34 34 32 31 29 29 28 29 24 24 21 22 21 26 33 31 26 26 27 26 25 22 23 24 23 23 23 24 23 24 25
41 39 37 38 37 35 35 34 34 33 32 33 33 28 26 23 19 20 20 19 22 23 25 28 27 24 27 23 22 22 20 21 25 22 22 23 21 21
35 35 36 38 36 35 34 34 34 33 32 32 33 29 25 22 19 18 14 10 11 9 13 13 21 20 21 24 27 21 22 20 24 23 23 22 21 22
31 31 34 36 35 34 34 33 34 33 32 31 30 27 25 24 24 21 21 20 16 16 13 15 13 15 17 21 18 20 19 18 18 15 15 16 17 20
32 30 33 34 32 33 34 33 32 32 31 30 28 27 25 25 24 23 26 25 19 17 17 17 17 15 12 14 15 16 15 13 12 14 15 17 17 15
32 32 31 30 32 33 33 32 30 31 30 29 27 26 25 24 23 22 21 19 19 18 17 16 14 14 17 17 19 16 15 14 14 16 16 16 15 16
33 33 31 30 31 31 33 33 34 30 28 27 26 24 23 23 22 21 20 19 18 17 17 16 15 14 14 15 18 16 16 16 15 16 17 17 17 18
30 34 32 30 30 30 33 33 31 33 28 27 25 23 22 22 22 21 20 19 18 18 17 17 17 17 17 17 18 18 18 18 19 19 20 21 22 22
28 32 31 29 29 29 32 32 30 31 27 26 24 22 22 22 21 21 20 20 19 19 19 19 19 19 19 19 19 19 20 20 20 21 22 23 24 25
25 28 28 30 27 28 29 28 28 31 26 25 24 23 22 21 21 21 21 21 21 20 20 21 21 21 21 21 20 20 21 22 23 23 24 25 26 27
23 24 24 22 24 26 26 26 28 29 26 23 22 22 22 21 22 22 22 22 22 21 20 20 20 20 19 20 20 21 22 22 23 25 26 27 28 29
Wind_Direction
276 276 275 275 276 278 281 281 283 282 280 279 280 276 272 267 263 261 259 259 259 257 254 253 253 255 256 256 255 254 253 254 254 252 248 249 253 252
274 275 275 274 273 275 277 278 276 280 282 286 282 285 281 274 270 265 259 259 258 260 262 260 255 255 256 256 255 253 253 255 254 252 248 251 252 258
276 276 277 275 271 270 272 275 274 275 278 281 288 289 288 282 261 258 263 265 266 265 264 265 264 259 257 258 258 257 256 255 254 251 250 250 252 249
280 280 282 279 273 269 269 271 273 273 275 278 281 289 292 288 269 255 264 265 271 275 273 274 268 264 260 257 257 257 256 256 255 248 249 249 255 257
284 285 285 284 279 270 269 271 273 273 273 276 279 283 289 286 275 261 253 263 271 273 272 273 269 268 264 261 257 256 255 255 255 254 251 254 256 256
281 283 285 284 282 274 270 270 271 272 272 274 276 282 284 276 271 264 261 261 262 262 275 271 272 267 268 263 257 256 255 257 258 259 257 256 257 250
278 278 280 282 280 278 274 271 271 273 273 273 275 278 279 278 276 266 262 268 266 267 267 271 275 263 258 259 264 260 252 255 256 254 258 254 252 251
275 275 276 277 279 277 277 276 275 276 274 275 276 279 277 278 263 258 266 269 275 270 266 268 281 283 269 262 258 271 251 251 257 258 255 248 258 253
271 272 272 273 274 275 274 274 274 275 280 283 285 286 278 274 252 243 261 269 272 269 277 274 269 272 275 262 266 269 261 262 255 246 250 255 255 253
268 269 270 270 271 273 272 273 272 273 275 284 288 288 282 264 253 262 255 260 261 262 266 276 277 264 259 264 269 270 256 266 243 247 254 258 252 254
268 267 268 268 270 270 270 271 269 269 272 271 282 286 283 269 252 254 254 261 255 262 269 266 273 271 261 264 272 258 256 264 268 247 257 258 261 260
266 265 265 266 266 267 268 267 266 265 266 266 270 276 278 272 264 262 262 260 256 255 257 262 261 262 269 257 263 250 257 259 271 252 263 266 256 265
262 261 262 263 263 265 267 265 263 260 259 256 261 270 278 279 274 273 262 273 256 251 257 258 252 255 254 263 266 265 261 263 269 267 271 256 256 262
263 259 257 258 259 262 264 264 261 259 258 255 260 266 273 272 266 273 274 265 262 256 250 254 248 251 258 253 260 256 258 259 254 254 266 246 263 265
265 257 253 255 256 259 263 263 261 258 257 257 257 261 266 266 247 250 249 248 248 238 230 245 242 246 247 250 251 254 255 259 261 267 259 254 247 252
263 257 251 252 252 254 261 261 261 258 256 256 257 256 257 256 250 247 252 258 270 261 244 235 244 256 248 247 240 257 256 246 245 234 230 232 230 232
261 254 248 248 249 251 256 257 258 258 256 254 254 252 250 250 251 250 243 251 255 264 237 241 235 234 226 222 223 226 222 226 225 233 235 240 235 230
254 253 249 245 244 247 253 252 252 255 254 252 251 249 247 246 246 246 248 248 248 248 240 236 230 228 228 232 230 233 239 238 236 236 237 241 240 246
252 247 248 245 245 246 250 250 247 246 252 251 249 248 245 243 241 239 238 236 235 235 234 235 233 231 231 231 233 234 236 239 241 244 247 248 249 253
251 244 245 249 248 243 249 249 254 246 243 246 244 242 240 239 239 237 234 233 233 235 236 236 238 239 237 238 240 242 243 245 246 248 252 255 257 256
251 243 243 251 254 244 245 251 253 241 237 242 240 239 238 237 236 236 235 235 235 237 239 239 239 240 242 243 244 247 249 251 252 254 257 259 262 264
253 240 241 250 250 245 242 244 248 239 231 236 236 236 235 234 235 236 236 236 237 238 240 243 242 242 244 246 249 251 254 257 258 260 261 262 264 266
244 236 242 242 240 236 236 243 239 233 230 232 236 235 234 235 236 237 239 239 240 240 241 243 245 246 248 250 252 256 258 259 261 263 264 266 268 269
Height
3037 3036 3036 3036 3033 3032 3030 3029 3026 3023 3024 3026 3026 3028 3029 3030 3030 3030 3030 3031 3032 3034 3035 3038 3039 3040 3041 3043 3045 3048 3050 3053 3055 3058 3061 3064 3067 3070
3027 3026 3026 3026 3026 3025 3023 3021 3019 3016 3012 3016 3017 3018 3020 3019 3020 3020 3020 3020 3021 3023 3024 3025 3027 3027 3028 3030 3032 3034 3037 3040 3043 3046 3050 3051 3055 3059
3017 3016 3016 3014 3014 3015 3014 3013 3011 3010 3005 3005 3007 3008 3008 3009 3009 3010 3010 3010 3011 3012 3013 3014 3015 3016 3017 3017 3019 3021 3023 3026 3030 3034 3037 3042 3044 3048
3008 3006 3006 3004 3003 3004 3004 3003 3002 3001 2997 2995 2999 2998 2997 2999 2999 3000 3002 3002 3001 3002 3003 3003 3003 3004 3005 3006 3007 3008 3011 3014 3017 3022 3025 3030 3033 3037
2998 2997 2996 2994 2993 2993 2992 2993 2992 2991 2990 2986 2987 2989 2989 2990 2990 2989 2992 2992 2994 2994 2992 2991 2992 2992 2993 2994 2995 2997 2998 3002 3007 3010 3014 3018 3022 3024
2989 2988 2987 2985 2984 2983 2982 2982 2981 2980 2980 2978 2977 2978 2978 2981 2978 2979 2982 2983 2983 2984 2983 2983 2982 2982 2982 2983 2985 2986 2987 2991 2994 2998 3002 3004 3007 3010
2978 2978 2978 2977 2976 2974 2972 2973 2971 2971 2970 2968 2968 2968 2968 2967 2968 2971 2971 2974 2973 2974 2974 2975 2973 2972 2972 2973 2974 2976 2977 2980 2983 2986 2989 2992 2995 2999
2966 2967 2967 2967 2967 2965 2963 2962 2962 2961 2961 2958 2958 2956 2957 2956 2958 2961 2963 2963 2962 2967 2965 2966 2964 2963 2962 2963 2965 2964 2967 2969 2970 2972 2975 2975 2983 2986
2955 2956 2957 2957 2956 2956 2955 2954 2953 2951 2949 2948 2947 2947 2946 2948 2949 2952 2953 2954 2954 2956 2955 2957 2956 2956 2954 2956 2957 2957 2958 2959 2959 2959 2963 2966 2970 2975
2942 2944 2944 2945 2945 2945 2944 2945 2944 2943 2942 2941 2938 2939 2938 2940 2941 2942 2944 2944 2946 2947 2947 2946 2947 2946 2948 2949 2951 2949 2949 2950 2952 2953 2955 2957 2959 2963
2929 2931 2931 2933 2934 2933 2933 2934 2935 2935 2934 2934 2933 2932 2931 2931 2932 2933 2935 2934 2935 2938 2939 2938 2939 2938 2941 2941 2943 2943 2944 2945 2945 2946 2948 2949 2950 2951
2916 2918 2919 2920 2922 2923 2923 2924 2925 2926 2926 2926 2927 2925 2925 2923 2923 2923 2924 2923 2926 2928 2930 2930 2931 2932 2933 2934 2936 2937 2938 2939 2941 2942 2942 2943 2944 2945
2901 2906 2908 2908 2910 2912 2913 2914 2915 2916 2917 2918 2918 2918 2917 2916 2915 2915 2915 2914 2914 2917 2920 2920 2923 2924 2926 2927 2929 2930 2931 2932 2934 2934 2936 2936 2938 2939
2888 2893 2896 2896 2898 2901 2902 2904 2905 2906 2907 2909 2910 2910 2910 2910 2910 2909 2908 2907 2907 2909 2911 2912 2914 2916 2918 2920 2922 2924 2925 2926 2927 2929 2929 2930 2931 2933
2876 2880 2882 2884 2888 2891 2893 2894 2895 2896 2897 2899 2901 2901 2902 2903 2904 2904 2904 2903 2903 2902 2904 2905 2907 2909 2910 2913 2914 2916 2918 2920 2920 2921 2922 2923 2925 2927
2865 2868 2870 2873 2877 2880 2883 2885 2886 2887 2889 2890 2891 2893 2894 2895 2896 2897 2898 2898 2899 2899 2899 2901 2902 2903 2905 2907 2908 2910 2912 2913 2914 2915 2917 2919 2921 2923
2855 2856 2858 2862 2867 2870 2873 2874 2876 2878 2880 2881 2882 2884 2885 2887 2888 2890 2891 2892 2893 2895 2895 2896 2898 2899 2900 2901 2904 2906 2907 2909 2910 2912 2914 2915 2917 2918
2844 2846 2849 2852 2855 2859 2862 2864 2867 2869 2871 2873 2874 2876 2877 2879 2881 2883 2884 2886 2888 2889 2890 2892 2893 2894 2896 2898 2900 2901 2902 2904 2906 2908 2909 2911 2912 2914
2833 2836 2839 2842 2846 2849 2852 2854 2857 2860 2863 2865 2866 2868 2869 2872 2873 2875 2877 2880 2882 2884 2885 2888 2888 2890 2892 2894 2895 2896 2898 2899 2901 2902 2904 2905 2907 2908
2824 2827 2830 2834 2837 2840 2843 2845 2848 2851 2854 2857 2859 2861 2863 2865 2867 2869 2871 2873 2876 2878 2880 2882 2883 2885 2886 2888 2890 2891 2892 2894 2896 2897 2898 2899 2900 2902
2814 2818 2823 2826 2828 2831 2834 2837 2840 2843 2846 2849 2851 2853 2856 2858 2861 2863 2865 2867 2869 2872 2874 2875 2877 2878 2880 2882 2884 2885 2887 2888 2889 2890 2891 2892 2893 2894
2806 2810 2814 2817 2820 2822 2825 2829 2832 2835 2838 2842 2844 2846 2849 2852 2854 2856 2858 2860 2862 2865 2867 2870 2871 2872 2874 2875 2877 2878 2879 2881 2882 2882 2883 2884 2885 2885
2798 2802 2805 2809 2812 2814 2818 2822 2825 2828 2831 2835 2838 2841 2843 2845 2848 2850 2852 2854 2856 2858 2861 2863 2865 2866 2867 2869 2870 2871 2872 2873 2874 2875 2876 2876 2876 2876